Location: *
(43.6428°N, 11.5461°E)
Time: 15:58:08
(UTC+00:00)

BREEZE-M DEB (TANK) - Pass Details

Date: 21 October 2019
Orbit: 669 x 22260 km, 51.1° (Epoch: 13 November)

Event Time Altitude Azimuth Distance (km) Brightness Sun altitude
Rises 18:00:45 0° 300° (WNW) 3,167 7.3 -18.7°
Reaches altitude 10° 18:02:21 10° 300° (WNW) 2,444 6.5 -18.9°
Maximum altitude 18:07:12 88° 211° (SSW) 1,365 4.2 -19.8°
Enters shadow 18:18:43 18° 125° (SE) 5,749 6.9 -21.9°
